Weather History for Caldwell, NJ

Change the Weather History Date:

Thursday, February 14, 2013

  Actual Average Record
Temperature  
Mean Temperature 36 °F -  
Max Temperature 45 °F 39 °F 62 °F (1951)
Min Temperature 28 °F 19 °F 5 °F (1983)
Degree Days  
Heating Degree Days 28    
Moisture  
Dew Point 27 °F    
Average Humidity 77    
Maximum Humidity 96    
Minimum Humidity 42    
Precipitation  
Precipitation 0.00 in - - ()
Sea Level Pressure  
Sea Level Pressure 29.90 in    
Wind  
Wind Speed 1 mph (WSW)    
Max Wind Speed 8 mph    
Max Gust Speed -    
Visibility 7 miles    
Events Snow    
Averages and records for this station are not official NWS values.
T = Trace of Precipitation, MM = Missing Value Source: NWS Daily Summary

Daily Weather History Graph

Daily Weather History Graph

Search for Another Location

Airport:

Trip Planner

Search our weather history database for the weather conditions in past years. The results will help you decide how hot, cold, wet, or windy it might be!

Date:

Astronomy

Feb. 14, 2013 Rise Set
Actual Time 6:52 AM EST 5:30 PM EST
Civil Twilight 6:24 AM EST 5:59 PM EST
Nautical Twilight 5:52 AM EST 6:31 PM EST
Astronomical Twilight 5:20 AM EST 7:03 PM EST
Moon 8:50 AM EST (2/14) 10:33 PM EST (2/14)
Length of Visible Light 11h 34m
Length of Day
10h 38m
Waxing Crescent, 21% of the Moon is Illuminated
Feb 14
Waxing Crescent
Feb 17
First Quarter
Feb 25
Full
Mar 4
Last Quarter
Mar 11
New

Hourly Weather History & Observations

Time (EST) Temp. Windchill Dew Point Humidity Pressure Visibility Wind Dir Wind Speed Gust Speed Precip Events Conditions
12:22 AM 33.8 °F - 32.0 °F 93% 29.73 in 3.0 mi Calm Calm - 0.00 in   Overcast
12:32 AM 33.8 °F - 32.0 °F 93% 29.73 in 2.0 mi Calm Calm - 0.00 in Snow Light Snow
12:53 AM 33.1 °F - 32.0 °F 96% 29.75 in 2.5 mi Calm Calm - 0.00 in Snow Light Snow
1:08 AM 33.8 °F - 32.0 °F 93% 29.73 in 3.0 mi Calm Calm - 0.00 in   Overcast
1:16 AM 33.8 °F - 32.0 °F 93% 29.73 in 3.0 mi Calm Calm - 0.00 in   Overcast
1:53 AM 33.1 °F - 32.0 °F 96% 29.77 in 3.0 mi Calm Calm - 0.00 in   Overcast
2:11 AM 33.8 °F - 30.2 °F 87% 29.76 in 4.0 mi Calm Calm - N/A   Overcast
2:53 AM 33.1 °F - 30.9 °F 92% 29.80 in 5.0 mi Calm Calm - N/A   Overcast
3:53 AM 33.1 °F - 30.0 °F 89% 29.81 in 9.0 mi Calm Calm - N/A   Overcast
4:18 AM 32.0 °F - 30.2 °F 93% 29.81 in 8.0 mi Calm Calm - N/A   Mostly Cloudy
4:53 AM 30.9 °F - 28.9 °F 92% 29.84 in 4.0 mi Calm Calm - N/A   Clear
5:53 AM 28.9 °F - 28.0 °F 96% 29.86 in 5.0 mi Calm Calm - N/A   Clear
6:53 AM 28.0 °F - 27.0 °F 96% 29.90 in 3.0 mi Calm Calm - N/A   Clear
7:53 AM 28.9 °F - 27.0 °F 92% 29.94 in 3.0 mi Calm Calm - N/A   Clear
8:04 AM 30.2 °F - 28.4 °F 93% 29.92 in 2.0 mi Calm Calm - N/A   Clear
8:17 AM 30.2 °F 26.7 °F 28.4 °F 93% 29.93 in 4.0 mi South 3.5 mph - N/A   Clear
8:53 AM 34.0 °F - 30.0 °F 85% 29.96 in 6.0 mi Calm Calm - N/A   Clear
9:53 AM 37.0 °F 32.4 °F 25.0 °F 62% 29.97 in 10.0 mi Variable 5.8 mph - N/A   Clear
10:53 AM 39.0 °F 35.7 °F 24.1 °F 55% 29.98 in 10.0 mi NE 4.6 mph - N/A   Clear
11:53 AM 41.0 °F - 25.0 °F 53% 29.97 in 10.0 mi Calm Calm - N/A   Clear
12:53 PM 42.1 °F 38.4 °F 23.0 °F 47% 29.96 in 10.0 mi WSW 5.8 mph - N/A   Clear
1:53 PM 43.0 °F 41.3 °F 23.0 °F 45% 29.95 in 10.0 mi Variable 3.5 mph - N/A   Clear
2:53 PM 44.1 °F 39.5 °F 21.9 °F 42% 29.96 in 10.0 mi West 8.1 mph - N/A   Clear
3:53 PM 45.0 °F 41.2 °F 23.0 °F 42% 29.96 in 10.0 mi West 6.9 mph - N/A   Clear
4:53 PM 43.0 °F 38.8 °F 24.1 °F 47% 29.99 in 10.0 mi SW 6.9 mph - N/A   Clear
5:53 PM 42.1 °F - 24.1 °F 49% 29.99 in 10.0 mi Calm Calm - N/A   Clear
6:53 PM 39.0 °F - 25.0 °F 57% 30.00 in 10.0 mi Calm Calm - N/A   Clear
7:53 PM 34.0 °F - 26.1 °F 73% 30.01 in 10.0 mi Calm Calm - N/A   Partly Cloudy
8:53 PM 34.0 °F - 25.0 °F 70% 30.01 in 10.0 mi Calm Calm - N/A   Clear
9:53 PM 32.0 °F - 26.1 °F 79% 30.02 in 10.0 mi Calm Calm - N/A   Clear
10:53 PM 32.0 °F - 26.1 °F 79% 30.02 in 10.0 mi Calm Calm - N/A   Partly Cloudy
11:53 PM 30.0 °F - 24.1 °F 79% 30.02 in 10.0 mi Calm Calm - N/A   Clear